Regional Weather Roundup
Issued by NWS Midland/Odessa, TX

Skip options and go directly to product.
Home | Oldest Version | Previous Version | Current Version | All | Text Only | Save Text | Print | Product List | Glossary On

Skip product version selection by date and time.   
668
ASUS44 KMAF 290010
RWRMAF
MIDLAND AREA WEATHER ROUNDUP
NATIONAL WEATHER SERVICE MIDLAND TX
600 PM CST FRI NOV 28 2014

...IN SOUTHWEST TEXAS AND SOUTHEAST NEW MEXICO...

CITY           SKY/WX    TMP DP  RH WIND       PRES   REMARKS
ALPINE         CLEAR     59  19  21 SW9       30.18S
ANDREWS        FAIR      64  24  21 SW8       30.02S
ARTESIA        NOT AVBL
BIG SPRING     CLEAR     64  31  29 S9        30.04S
CARLSBAD       CLEAR     68  28  22 CALM      29.99F
DRYDEN           N/A     61  37  41 SE6       30.07S
FORT STOCKTON  CLEAR     68  19  15 SW13      30.04S
GUAD PASS      NOT AVBL
HOBBS          CLEAR     61  23  23 S8        30.03F
MARFA          CLEAR     59  18  20 S10       30.17R
MIDLAND AIRPK  CLEAR     67  23  19 S6        30.03S
MIDLAND INTL   CLEAR     66  22  18 SW7       30.02F
ODESSA         CLEAR     64  20  18 S7        30.03F
PECOS          CLEAR     68  22  17 SW3       30.02S
PRESIDIO       FAIR      66  30  25 SE3       30.07S
SEMINOLE       CLEAR     61  25  25 CALM      30.02F
SNYDER         CLEAR     64  32  29 SW8       30.01R
WINK           CLEAR     66  17  15 S8        30.00F
$$
...OTHER STATIONS IN TEXAS...

CITY           SKY/WX    TMP DP  RH WIND       PRES   REMARKS
ABILENE        CLEAR     67  39  35 S15       30.01S
AMARILLO       CLEAR     67  17  14 SW15      29.88F
AUSTIN         PTCLDY    61  46  57 S6        30.11S
BROWNSVILLE    CLEAR     67  57  70 SE8       30.16S
CORPUS CHRISTI CLEAR     67  55  65 SE12      30.14F
DALLAS FTW     PTCLDY    65  48  54 S14       30.01S
DEL RIO        CLEAR     66  46  48 E7        30.07F
EL PASO        CLEAR     64  20  18 SE6       30.08F
HOUSTON INT    PTCLDY    65  55  70 S7        30.17S
LUBBOCK        PTCLDY    66  25  21 SW13      29.96S
SAN ANGELO     CLEAR     65  38  36 S10       30.04S
SAN ANTONIO    PTCLDY    67  46  47 S6        30.12S
WACO           CLEAR     63  49  60 S13       30.07F
WICHITA FALLS  NOT AVBL
$$
...OTHER LOCATIONS IN NEW MEXICO...

CITY           SKY/WX    TMP DP  RH WIND       PRES   REMARKS
ALAMAGORDO     CLEAR     61  18  18 SW5       30.09S
ALBUQUERQUE    PTCLDY    58  20  22 S3        30.10S
CANNON AFB     CLEAR     57  13  18 SW12      29.99S
CLOVIS         CLEAR     59  10  14 SW13      29.98S
HOLLOMAN AFB   CLEAR     63  20  19 S3        30.08S
ROSWELL        CLEAR     63  30  28 CALM      29.99S
RUIDOSO        CLEAR     52  19  28 W9        30.18S
SANTA FE       CLEAR     50  15  24 W7        30.11F
TRUTH OR CONSE CLEAR     64  20  18 SW10      30.08F
TUCUMCARI      PTCLDY    67  14  13 SW12      29.91S
$$

USA.gov is the U.S. government's official web portal to all federal, state and local government web resources and services.